Preview of NWS' New Version of Forecast
This preview is not operational and should not be used for support decisions.

Regional Weather Roundup (RWR)

Issued by National Weather Service (NWS)

                            
000
ASUS43 KDTX 182110
RWRMI 
MICHIGAN HOURLY REGIONAL WEATHER ROUNDUP
NATIONAL WEATHER SERVICE DETROIT/PONTIAC MI
500 PM EDT THU APR 18 2019

NOTE: "FAIR" INDICATES FEW OR NO CLOUDS BELOW 12,000 FEET WITH NO
SIGNIFICANT WEATHER AND/OR OBSTRUCTION TO VISIBILITY.

MIZ047>049-052>055-059>063-066>070-074>076-081>083-182200-
SOUTHEAST LOWER MICHIGAN
  
CITY           SKY/WX    TMP DP  RH WIND       PRES   REMARKS
ADRIAN         LGT RAIN  63  58  83 SW22G31   29.57F                  
ALMA           CLOUDY    54  51  89 W10       29.57R                  
ANN ARBOR      LGT RAIN  63  59  87 S18G26    29.55F                  
BAD AXE        CLOUDY    63  58  86 SW15      29.46F                  
CARO           RAIN      59  57  94 W16G24    29.50R                  
DETROIT CITY   LGT RAIN  69  56  62 SW22G32   29.54F                  
DETROIT        LGT RAIN  66  56  70 SW24G37   29.56F                  
FLINT          RAIN      58  56  93 W18G25    29.53R FOG              
GROSSE ILE     LGT RAIN  67  56  68 W23G30    29.56S                  
HILLSDALE      RAIN      58  54  85 W12G22    29.58R                  
HOWELL         HVY RAIN  62  55  76 W15G26    29.55R                  

CITY           SKY/WX    TMP DP  RH WIND       PRES   REMARKS
JACKSON        LGT RAIN  58  56  93 W9G21     29.57R FOG              
LAMBERTVILLE   LGT RAIN  65  59  80 SW14G24   29.59S                  
LANSING        CLOUDY    53  51  93 W15       29.58R                  
LAPEER         CLOUDY    66  58  74 SW17G25   29.51F                  
MASON          LGT RAIN  55  53  93 W9        29.57R                  
MONROE         RAIN      67  63  87 SW20G28   29.57S                  
MT. CLEMENS    LGT RAIN  69  60  73 SW20G33   29.53F                  
PONTIAC        LGT RAIN  63  59  87 S15G24    29.52F                  
PORT HOPE        N/A     46  46 100 N7G16     29.48R                  
PORT HURON     RAIN      68  55  64 SW12G23   29.54F                  
TRI CITIES     LGT RAIN  56  55  97 W9        29.54R FOG              
MIDLAND        RAIN      55  53  91 W9        29.53R                  
TROY           LGT RAIN  65  56  73 SW17G30   29.56F                  
SAGINAW HB     RAIN      59  55  88 W12       29.53R                  
$$
MIZ043>046-050>051-056>058-064>065-071>073-077>080-182200-
SOUTHWEST LOWER MICHIGAN
  
CITY           SKY/WX    TMP DP  RH WIND       PRES   REMARKS
BATTLE CREEK   CLOUDY    51  48  89 NW10      29.61R                  
BENTON HARBOR  CLOUDY    42  39  89 VRB7      29.66S                  
BIG RAPIDS     CLOUDY    44  42  91 W10G18    29.60R                  
COLDWATER      DRIZZLE   54  54  99 NW14      29.60R                  
FREMONT        CLOUDY    42  41  95 NW16      29.62R                  
HOLLAND        CLOUDY    43  40  89 NW9       29.65R                  
GRAND RAPIDS   LGT RAIN  50  46  86 W13       29.61R                  
IONIA          CLOUDY    52  48  87 W13       29.58R                  
KALAMAZOO      CLOUDY    49  46  90 NW14      29.63R                  
LUDINGTON      CLOUDY    39  38  94 NW7       29.65R FOG     WCI  34  
MARSHALL       CLOUDY    54  54 100 W9        29.59R                  
MOUNT PLEASANT CLOUDY    51  51  98 W13       29.56R                  
MUSKEGON       CLOUDY    42  37  82 NW10G23   29.65R                  
SOUTH HAVEN    LGT RAIN  42  40  93 N12G18    29.67S                  
$$
MIZ016>042-182200-
NORTHERN LOWER MICHIGAN
  
CITY           SKY/WX    TMP DP  RH WIND       PRES   REMARKS
ALPENA         LGT RAIN  46  44  93 N6        29.54R FOG              
BEAVER ISLAND  RAIN      37  37  99 N6        29.59R WCI  33          
BELLAIRE       FOG       39  37  95 CALM      29.58R VSB 1/2          
CADILLAC       CLOUDY    42  41  95 W12       29.57R                  
CHARLEVOIX     FOG       39  38  97 NW6       29.61R VSB 1/2 WCI  35  
FRANKFORT      CLOUDY    41  37  86 NW7       29.64R FOG              
GAYLORD        FOG       38  38 100 W7        29.54S VSB 1/2 WCI  33  
GRAYLING       LGT RAIN  41  40  97 W7        29.54S                  
HARBOR SPRINGS FOG       36  35  96 CALM      29.56R VSB 1/2          
HOUGHTON LAKE  CLOUDY    45  42  89 W8        29.54F                  
MANISTEE       LGT RAIN  38  37  97 NW9       29.64R FOG     WCI  31  
OSCODA         LGT SNOW  40  40 100 NE8       29.53R WCI  35          
PELLSTON       CLOUDY    41  39  93 NW9       29.57R FOG              
ROGERS CITY    RAIN      41  40  96 NW6       29.56R                  
TRAVERSE CITY  DRIZZLE   41  38  89 W8        29.59R FOG              
$$
MIZ007>008-015-182200-
EASTERN UPPER MICHIGAN
  
CITY           SKY/WX    TMP DP  RH WIND       PRES   REMARKS
KINROSS        CLOUDY    38  38 100 NW9       29.56R WCI  31          
MACKINAC ISLAN FOG       38  38 100 NW5       29.55R VSB 1/4 WCI  35  
NEWBERRY       CLOUDY    37  34  92 N6        29.59R WCI  32          
S. S. MARIE    CLOUDY    43  36  76 N7        29.56R                  
MUNISING         N/A     37  33  85 NW16G26   29.65R WCI  28          
$$
MIZ004>006-011>014-085-182200-
CENTRAL UPPER MICHIGAN
  
CITY           SKY/WX    TMP DP  RH WIND       PRES   REMARKS
MANISTIQUE     CLOUDY    39  34  80 N14G22    29.61R WCI  31          
ESCANABA       CLOUDY    42  35  76 N14G21    29.66R                  
MENOMINEE      CLOUDY    43  36  76 N12       29.69R                  
SAWYER-GWINN   CLOUDY    39  36  87 N21G29    29.65R WCI  29          
$$
MIZ001>003-009>011-084-182200-
WESTERN UPPER MICHIGAN
  
CITY           SKY/WX    TMP DP  RH WIND       PRES   REMARKS
IRON MOUNTAIN  CLOUDY    40  35  83 N14G24    29.69R WCI  32          
HOUGHTON       CLOUDY    43  35  73 N13G23    29.75R                  
COPPER HARBOR    N/A     38  34  85 NE15      29.74S WCI  29          
IRONWOOD       LGT RAIN  39  38  96 NW8       29.82R WCI  33          
$$

ABBREVIATIONS USED IN REMARKS
   TC - TEMPERATURE IN CELSIUS
  WCI - WIND CHILL INDEX
   HX - HEAT INDEX
  VSB - VISIBILITY